Regional Weather Roundup
Issued by NWS

Home | Current Version | Previous Version | Graphics & Text | Print | Product List | Glossary On
Versions: 1 2 3 4 5 6 7 8 9 10 11 12 13 14 15 16 17 18 19 20 21 22 23 24 25 26 27
000
ASUS45 KBOI 261310
RWRID

IDAHO REGIONAL WEATHER ROUNDUP
NATIONAL WEATHER SERVICE BOISE ID
700 AM MDT SUN MAR 26 2017

NOTE: "FAIR" INDICATES FEW OR NO CLOUDS BELOW 12000 FEET
WITH NO SIGNIFICANT WEATHER AND/OR OBSTRUCTIONS TO VISIBILITY

IDZ012-014-261400-
SOUTHWEST IDAHO


CITY           SKY/WX    TMP DP  RH WIND       PRES   REMARKS
BOISE          CLEAR     40  27  59 SE10      29.95S WCI  33
CALDWELL       CLEAR     34  30  85 SE5       29.96S WCI  30
MOUNTAIN HOME  PTCLDY    32  32 100 E10       29.96F WCI  24
$$

IDZ016-017-261400-
SOUTHCENTRAL IDAHO


CITY           SKY/WX    TMP DP  RH WIND       PRES   REMARKS
BURLEY         CLEAR     33  27  78 S10       29.99R WCI  25
JEROME         CLEAR     34  28  79 E8        29.99R WCI  27
TWIN FALLS     CLEAR     31  26  82 S10       29.99R WCI  22
$$

IDZ019>023-261400-
SOUTHEAST IDAHO


CITY           SKY/WX    TMP DP  RH WIND       PRES   REMARKS
IDAHO FALLS    CLEAR     28  26  92 SW7       29.99R WCI  21
POCATELLO      CLEAR     27  25  92 W7        30.01R WCI  19
REXBURG        MOCLDY    31  24  75 SW3       29.98R
$$

IDZ006-010-011-018-031-032-261400-
CENTRAL IDAHO MOUNTAINS


CITY           SKY/WX    TMP DP  RH WIND       PRES   REMARKS
MCCALL         CLOUDY    25  22  88 CALM      29.94F
HAILEY         CLEAR     28  19  69 NW12      30.01R WCI  18
STANLEY          N/A     12  10  92 SE3       30.01R
SALMON         CLOUDY    27  19  74 CALM      30.00R
CHALLIS        CLEAR     26  20  77 CALM      30.00R
$$

IDZ002-004-006-007-026-261400-
NORTHERN IDAHO


CITY           SKY/WX    TMP DP  RH WIND       PRES   REMARKS
LEWISTON       MOCLDY    38  34  85 SE3       29.97F
LOWELL           N/A     39  35  86 CALM      30.04F
COEUR D`ALENE  CLOUDY    31  30  96 E5        29.97F WCI  26
MULLAN PASS    PTCLDY    23  21  92 S6        29.90F WCI  16
$$




USA.gov is the U.S. government's official web portal to all federal, state and local government web resources and services.